Flag for Germany Weather past 2 weeks in Alfeld (Leine), Lower Saxony, Germany

Now
63 °F

Sunny.


Feels Like: 63 °F
Forecast: 51 / 75 °F
Wind: 8 mph from East

Location: Braunschweig

Current Time: Sep 17, 2014 at 9:38:09 AM

Latest Report: Sep 17, 2014 at 9:20 AM


Visibility: 10 mi

Pressure: 30.01 "Hg

Humidity: 94%

Dew point: 61 °F

Location of Alfeld (Leine)Location

Historic Weather in Alfeld (Leine) — Graph

°F

Alfeld (Leine) temperature yesterday

Maximum temperature yesterday: 75 °F (at 3:20 PM)
Minimum temperature yesterday: 57 °F (at 6:50 AM)
Average temperature yesterday: 67 °F

Past Weeks' High & Low Weather Summary

 TemperatureHumidityPressure
High79 °F (Sep 6, 2:50 PM)100% (Sep 2, 8:20 AM)30.30 "Hg (Sep 2, 8:20 AM)
Low50 °F (Sep 9, 6:50 AM)53% (Sep 8, 5:20 PM)29.86 "Hg (Sep 6, 7:20 PM)
Average63 °F83%30.09 "Hg
* Reported Sep 2 8:20 AM — Sep 17 8:20 AM, Alfeld (Leine), Weather by CustomWeather, © 2014

Note: Actual official high and low records may vary slightly from our data, if they occured in-between our weather recording intervals... More about our weather records

Advertising

Alfeld (Leine) weather history for previous 24 hours

 ConditionsComfort  
Time TempWeatherWind HumidityBarometerVisibility
8:20 AM
Sep 17
59 °FSunny.5 mph100%30.01 "Hg10 mi
7:50 AM59 °FClear.6 mph100%30.01 "Hg6 mi
7:20 AM59 °FClear.7 mph100%30.01 "Hg5 mi
6:50 AM59 °FClear.7 mph100%30.01 "Hg5 mi
9:50 PM
Sep 16
64 °FClear.7 mph94%30.04 "Hg10 mi
9:20 PM64 °FClear.7 mph100%30.04 "Hg10 mi
8:50 PM64 °FClear.6 mph94%30.04 "Hg10 mi
8:20 PM66 °FClear.7 mph88%30.04 "Hg6 mi
7:50 PM68 °FClear.9 mph83%30.01 "Hg6 mi
7:20 PM70 °FSunny.8 mph78%30.01 "Hg10 mi
6:50 PM72 °FSunny.10 mph65%30.01 "Hg10 mi
6:20 PM73 °FSunny.13 mph61%30.01 "Hg10 mi
5:50 PM73 °FSunny.12 mph61%30.01 "Hg10 mi
5:20 PM73 °FSunny.14 mph61%30.01 "Hg10 mi
4:50 PM75 °FSunny.15 mph57%30.01 "Hg10 mi
4:20 PM75 °FScattered clouds.13 mph57%30.01 "HgN/A
3:50 PM75 °FScattered clouds.13 mph57%30.04 "HgN/A
3:20 PM75 °FScattered clouds.13 mph61%30.04 "HgN/A
2:50 PM73 °FScattered clouds.15 mph69%30.04 "HgN/A
2:20 PM73 °FScattered clouds.14 mph69%30.04 "HgN/A
1:50 PM73 °FPartly sunny.13 mph74%30.04 "HgN/A
1:20 PM72 °FPassing clouds.9 mph73%30.04 "HgN/A
12:50 PM70 °FPassing clouds.9 mph78%30.07 "HgN/A
12:20 PM68 °FSunny.10 mph83%30.07 "Hg10 mi
11:50 AM68 °FPassing clouds.8 mph83%30.07 "HgN/A
11:20 AM66 °FPassing clouds.8 mph88%30.07 "HgN/A
10:50 AM64 °FSunny.8 mph88%30.07 "Hg10 mi
10:20 AM63 °FSunny.10 mph88%30.07 "Hg10 mi
9:50 AM61 °FSunny.9 mph100%30.07 "Hg10 mi
9:20 AM59 °FClear.7 mph100%30.07 "Hg6 mi
Weather by CustomWeather, © 2014

See weather overviewHow to use our weather pages